Location: Hains Lake
(37.8540°N, 99.8578°W)
Time: 03:31:25
(UTC+00:00)

Vanguard 2 Rocket - Pass Details

Date: 20 April 2021
Orbit: 553 x 3326 km, 32.9° (Epoch: 07 May)

Event Time Altitude Azimuth Distance (km) Brightness Sun altitude
Rises 20:46:42 0° 250° (WSW) 6,532 11.9 51.3°
Reaches altitude 10° 20:50:38 10° 249° (WSW) 5,766 11.8 50.6°
Maximum altitude 21:09:50 72° 169° (S) 3,428 10.7 47.4°
Drops below altitude 10° 21:28:27 10° 90° (E) 5,616 10.6 44.0°
Sets 21:32:13 0° 88° (E) 6,363 10.8 43.3°
